When you browse on this site, cookies collect data to enhance your experience and personalize the content and advertising you see.
Visit our Privacy Policy to learn more. By continuing to use the site, you agree to this use of cookies and data.
  • In Sweden
  • List of Countries
  • For 7 days
  • Water Temperature
  • Weather Map
  • Weather Widgets
  • user-avatar
    Login

    Hourly Weather Bielce

    Today, 26 February, Wednesday

    Time Temperature Precipitation Wind Pressure Humidity
    00:00 +5°C° 0 mm 3 mps 741 mmHg 62%
    01:00 +6°C° 0 mm 2 mps 741 mmHg 64%
    02:00 +6°C° 0 mm 2 mps 740 mmHg 66%
    03:00 +6°C° 0 mm 2 mps 740 mmHg 67%
    04:00 +6°C° 0 mm 2 mps 739 mmHg 68%
    05:00 +6°C° 0 mm 2 mps 739 mmHg 69%
    06:00 +6°C° 0 mm 2 mps 739 mmHg 69%
    07:00 +6°C° 0 mm 2 mps 739 mmHg 70%
    08:00 +8°C° 0 mm 1 mps 739 mmHg 72%
    09:00 +8°C° 0 mm 2 mps 738 mmHg 67%
    10:00 +10°C° 0 mm 2 mps 738 mmHg 62%
    11:00 +12°C° 0 mm 3 mps 737 mmHg 57%
    12:00 +13°C° 0 mm 3 mps 737 mmHg 53%
    13:00 +14°C° 0 mm 4 mps 736 mmHg 49%
    14:00 +15°C° 0 mm 4 mps 736 mmHg 45%
    15:00 +16°C° 0 mm 3 mps 736 mmHg 46%
    16:00 +16°C° 0 mm 3 mps 735 mmHg 47%
    17:00 +15°C° 0 mm 2 mps 735 mmHg 48%
    18:00 +13°C° 0 mm 3 mps 735 mmHg 51%
    19:00 +12°C° 0 mm 3 mps 736 mmHg 54%
    20:00 +11°C° 0 mm 4 mps 736 mmHg 58%
    21:00 +11°C° 0 mm 3 mps 736 mmHg 59%
    22:00 +10°C° 0 mm 2 mps 736 mmHg 61%
    23:00 +10°C° 0 mm 2 mps 736 mmHg 62%

    Tomorrow, 27 February, Thursday

    Time Temperature Precipitation Wind Pressure Humidity
    00:00 +9°C° 0 mm 2 mps 736 mmHg 64%
    01:00 +9°C° 0 mm 2 mps 736 mmHg 67%
    02:00 +10°C° 0 mm 1 mps 736 mmHg 69%
    03:00 +9°C° 0 mm 1 mps 736 mmHg 72%
    04:00 +8°C° 0 mm 2 mps 735 mmHg 75%
    05:00 +7°C° 0 mm 2 mps 735 mmHg 78%
    06:00 +7°C° 0.2 mm 3 mps 735 mmHg 80%
    07:00 +5°C° 0.2 mm 4 mps 736 mmHg 83%
    08:00 +4°C° 0.2 mm 6 mps 736 mmHg 85%
    09:00 +3°C° 1.8 mm 6 mps 736 mmHg 88%
    10:00 +3°C° 1.8 mm 6 mps 737 mmHg 90%
    11:00 +2°C° 1.8 mm 6 mps 738 mmHg 93%
    12:00 +2°C° 0.4 mm 6 mps 738 mmHg 86%
    13:00 +3°C° 0.4 mm 6 mps 739 mmHg 79%
    14:00 +3°C° 0.4 mm 6 mps 739 mmHg 72%
    15:00 +4°C° 0 mm 6 mps 739 mmHg 69%
    16:00 +4°C° 0 mm 6 mps 739 mmHg 66%
    17:00 +4°C° 0 mm 6 mps 739 mmHg 62%
    18:00 +5°C° 0 mm 5 mps 740 mmHg 64%
    19:00 +3°C° 0 mm 5 mps 740 mmHg 65%
    20:00 +2°C° 0 mm 5 mps 740 mmHg 66%
    21:00 +2°C° 0 mm 5 mps 741 mmHg 68%
    22:00 +3°C° 0 mm 4 mps 741 mmHg 70%
    23:00 +3°C° 0 mm 4 mps 741 mmHg 71%

    Day after tomorrow, 28 February, Friday

    Time Temperature Precipitation Wind Pressure Humidity
    00:00 +2°C° 0 mm 3 mps 742 mmHg 74%
    01:00 +1°C° 0 mm 3 mps 742 mmHg 76%
    02:00 +1°C° 0 mm 3 mps 742 mmHg 79%
    03:00 +1°C° 0 mm 2 mps 743 mmHg 80%
    04:00 +1°C° 0 mm 2 mps 743 mmHg 81%
    05:00 +2°C° 0 mm 1 mps 743 mmHg 83%
    06:00 +1°C° 0 mm 2 mps 743 mmHg 81%
    07:00 +1°C° 0 mm 2 mps 743 mmHg 79%
    08:00 +2°C° 0 mm 2 mps 744 mmHg 77%
    09:00 +2°C° 0 mm 3 mps 743 mmHg 69%
    10:00 +4°C° 0 mm 4 mps 743 mmHg 62%
    11:00 +5°C° 0 mm 5 mps 743 mmHg 54%
    12:00 +6°C° 0 mm 5 mps 743 mmHg 48%
    13:00 +7°C° 0 mm 6 mps 742 mmHg 43%
    14:00 +8°C° 0 mm 6 mps 742 mmHg 37%
    15:00 +8°C° 0 mm 5 mps 742 mmHg 38%
    16:00 +7°C° 0 mm 4 mps 741 mmHg 40%
    17:00 +8°C° 0 mm 3 mps 741 mmHg 41%
    18:00 +8°C° 0 mm 3 mps 741 mmHg 45%
    19:00 +7°C° 0 mm 3 mps 742 mmHg 50%
    20:00 +5°C° 0 mm 3 mps 742 mmHg 54%
    21:00 +5°C° 0 mm 3 mps 742 mmHg 59%
    22:00 +4°C° 0 mm 4 mps 742 mmHg 65%
    23:00 +2°C° 0 mm 5 mps 743 mmHg 70%

    29 February, Saturday

    Time Temperature Precipitation Wind Pressure Humidity
    00:00 +2°C° 0 mm 6 mps 743 mmHg 75%
    01:00 +2°C° 0 mm 7 mps 744 mmHg 81%
    02:00 0°C° 0 mm 7 mps 745 mmHg 87%
    03:00 0°C° 0.2 mm 8 mps 745 mmHg 85%
    04:00 0°C° 0.2 mm 9 mps 746 mmHg 83%
    05:00 -2°C° 0.2 mm 10 mps 746 mmHg 82%
    06:00 -2°C° 0 mm 10 mps 747 mmHg 79%
    07:00 -1°C° 0 mm 9 mps 748 mmHg 76%
    08:00 -1°C° 0 mm 9 mps 749 mmHg 73%
    09:00 0°C° 0 mm 8 mps 749 mmHg 69%
    10:00 0°C° 0 mm 8 mps 749 mmHg 66%
    11:00 +1°C° 0 mm 8 mps 750 mmHg 62%
    12:00 +3°C° 0 mm 7 mps 750 mmHg 59%
    13:00 +3°C° 0 mm 6 mps 750 mmHg 55%
    14:00 +4°C° 0 mm 6 mps 750 mmHg 52%
    15:00 +5°C° 0 mm 5 mps 750 mmHg 52%
    16:00 +5°C° 0 mm 4 mps 750 mmHg 52%
    17:00 +5°C° 0 mm 4 mps 750 mmHg 52%
    18:00 +4°C° 0 mm 3 mps 751 mmHg 57%
    19:00 +4°C° 0 mm 2 mps 751 mmHg 62%
    20:00 +4°C° 0 mm 1 mps 751 mmHg 66%
    21:00 +4°C° 0 mm 1 mps 752 mmHg 68%
    22:00 +4°C° 0 mm 1 mps 752 mmHg 69%
    23:00 +3°C° 0 mm 1 mps 752 mmHg 70%

    1 March, Sunday

    Time Temperature Precipitation Wind Pressure Humidity
    00:00 +2°C° 0 mm 2 mps 752 mmHg 71%
    01:00 +2°C° 0 mm 2 mps 752 mmHg 72%
    02:00 +2°C° 0 mm 2 mps 751 mmHg 72%
    03:00 0°C° 0 mm 3 mps 751 mmHg 72%
    04:00 0°C° 0 mm 3 mps 751 mmHg 71%
    05:00 0°C° 0 mm 3 mps 751 mmHg 71%
    06:00 -1°C° 0 mm 4 mps 751 mmHg 69%
    07:00 0°C° 0 mm 4 mps 751 mmHg 66%
    08:00 0°C° 0 mm 5 mps 751 mmHg 64%
    09:00 +2°C° 0 mm 6 mps 751 mmHg 58%
    10:00 +3°C° 0 mm 6 mps 751 mmHg 52%
    11:00 +5°C° 0 mm 7 mps 750 mmHg 47%
    12:00 +6°C° 0 mm 7 mps 750 mmHg 44%
    13:00 +8°C° 0 mm 7 mps 749 mmHg 41%
    14:00 +9°C° 0 mm 7 mps 749 mmHg 38%
    15:00 +9°C° 0 mm 6 mps 748 mmHg 41%
    16:00 +9°C° 0 mm 5 mps 748 mmHg 43%
    17:00 +9°C° 0 mm 5 mps 748 mmHg 46%
    18:00 +8°C° 0 mm 5 mps 748 mmHg 49%
    19:00 +8°C° 0 mm 5 mps 748 mmHg 52%
    20:00 +7°C° 0 mm 5 mps 748 mmHg 55%
    21:00 +7°C° 0 mm 5 mps 748 mmHg 59%
    22:00 +6°C° 0 mm 5 mps 748 mmHg 63%
    23:00 +5°C° 0 mm 6 mps 747 mmHg 67%

    2 March, Monday

    Time Temperature Precipitation Wind Pressure Humidity
    00:00 +6°C° 0 mm 5 mps 747 mmHg 69%
    01:00 +6°C° 0 mm 5 mps 747 mmHg 70%
    02:00 +6°C° 0 mm 5 mps 747 mmHg 72%
    03:00 +5°C° 0 mm 5 mps 746 mmHg 73%
    04:00 +5°C° 0 mm 5 mps 746 mmHg 75%
    05:00 +5°C° 0 mm 5 mps 745 mmHg 76%
    06:00 +4°C° 0 mm 6 mps 745 mmHg 77%
    07:00 +4°C° 0 mm 6 mps 745 mmHg 78%
    08:00 +4°C° 0 mm 7 mps 745 mmHg 79%
    09:00 +5°C° 0 mm 7 mps 744 mmHg 76%
    10:00 +6°C° 0 mm 7 mps 744 mmHg 72%
    11:00 +8°C° 0 mm 7 mps 744 mmHg 69%
    12:00 +9°C° 0 mm 6 mps 744 mmHg 68%
    13:00 +9°C° 0 mm 5 mps 743 mmHg 67%
    14:00 +11°C° 0 mm 4 mps 743 mmHg 67%
    15:00 +10°C° 0.4 mm 3 mps 743 mmHg 73%
    16:00 +10°C° 0.4 mm 3 mps 743 mmHg 80%
    17:00 +9°C° 0.4 mm 2 mps 743 mmHg 86%
    18:00 +9°C° 0.4 mm 2 mps 744 mmHg 88%
    19:00 +10°C° 0.4 mm 1 mps 744 mmHg 89%
    20:00 +10°C° 0.4 mm 1 mps 744 mmHg 90%
    21:00 +8°C° 0.6 mm 2 mps 745 mmHg 88%
    22:00 +8°C° 0.6 mm 3 mps 745 mmHg 86%
    23:00 +6°C° 0.6 mm 4 mps 746 mmHg 84%
    Show more